Weather Roundup
Issued by NWS

Home | Current Version | Previous Version | Graphics & Text | Print | Product List | Glossary Off
Versions: 1 2 3 4 5 6 7 8 9 10 11 12 13 14 15 16 17 18 19 20 21 22 23 24 25 26 27 28 29 30 31 32 33 34 35 36 37 38 39 40 41 42 43 44 45 46 47 48 49 50

000
NZUS93 KARX 231759
HRRWXR

CURRENT HOURLY OBSERVATIONS ACROSS
MUCH OF THE UPPER MISSISSIPPI VALLEY
NATIONAL WEATHER SERVICE LA CROSSE WI
100 PM CDT SUN APR 23 2017


...SOUTHEAST MINNESOTA...


CITY           SKY/WX    TMP DP  RH WIND       PRES   REMARKS
ROCHESTER      SUNNY     66  35  31 W9G21     30.06F
ROCHESTER/MAYO FAIR      67  33  29 W10G18    30.05F
WINONA         SUNNY     70  36  28 CALM      30.04F
AUSTIN         SUNNY     66  34  30 W8        30.06F
ALBERT LEA     SUNNY     64  25  22 SW7       30.04F
DODGE CENTER   SUNNY     64  34  32 SW7       30.05F
PRESTON        SUNNY     66  33  29 W9G17     30.06F
OWATONNA       SUNNY     68  34  28 SW9       30.04F
FARIBAULT      SUNNY     66  37  34 SW7       30.04F
$$

...ELSEWHERE IN MINNESOTA...


CITY           SKY/WX    TMP DP  RH WIND       PRES   REMARKS
MINNEAPOLIS    MOSUNNY   64  41  42 N3        30.04F
INTNL FALLS    CLOUDY    35  14  42 NE10      30.20F WCI  27
DULUTH         CLOUDY    34  30  85 E14       30.16S WCI  25
RED WING       SUNNY     68  32  26 W13       30.03F
REDWOOD FALLS  MOSUNNY   66  36  32 SW7       29.99F
MANKATO        SUNNY     65  34  31 W3        30.03F
WORTHINGTON    MOSUNNY   67  29  24 S22G29    30.00F
FAIRMONT       SUNNY     68  32  26 SW17G23   30.02F
$$

...SOUTHWEST WISCONSIN...


CITY           SKY/WX    TMP DP  RH WIND       PRES   REMARKS
LA CROSSE      SUNNY     71  37  28 N8        30.03F
PRAIRIE DU CHI SUNNY     69  31  24 SW8       30.07F
BOSCOBEL       SUNNY     71  35  26 VRB7      30.06F
LONE ROCK      NOT AVBL
PLATTEVILLE    SUNNY     67  35  30 W7        30.10F
FORT MC COY    SUNNY     68  35  30 SW7G21    30.07S
MAUSTON-NEW LI CLEAR     67  41  38 NW9       30.05F
VIROQUA        FAIR      67  35  30 W6        30.07F
WIS DELLS      SUNNY     68  33  27 W8        30.06F
$$

...ELSEWHERE IN WISCONSIN...


CITY           SKY/WX    TMP DP  RH WIND       PRES   REMARKS
MILWAUKEE      SUNNY     70  36  28 NW6       30.06F
MADISON        MOSUNNY   69  35  28 VRB7      30.06F
GREEN BAY      SUNNY     50  43  77 NE21      30.12F
EAU CLAIRE     SUNNY     60  40  47 VRB3      30.05F
BLACK RVR FLS  FAIR      70  33  25 W8        30.04F
MEDFORD        SUNNY     55  41  58 NE3       30.07F
WAUSAU         SUNNY     62  39  42 CALM      30.04F
WIS RAPIDS     MOSUNNY   68  38  33 NW6       30.05F
MARSHFIELD     SUNNY     64  39  39 W13G18    30.04F
RICE LAKE      SUNNY     53  38  55 NE6       30.10F
$$

...NORTHEAST IOWA...


CITY           SKY/WX    TMP DP  RH WIND       PRES   REMARKS
WATERLOO       SUNNY     69  32  25 VRB5      30.06F
DUBUQUE        SUNNY     68  34  28 NW12G20   30.10F
DECORAH        SUNNY     68  30  24 W10G17    30.06F
MASON CITY     SUNNY     68  30  24 SW14G22   30.07F
CHARLES CITY   SUNNY     68  30  24 W6G16     30.07F
OELWEIN        SUNNY     66  32  28 W10G17    30.09F
$$

...ELSEWHERE IN IOWA...


CITY           SKY/WX    TMP DP  RH WIND       PRES   REMARKS
DES MOINES     MOSUNNY   69  32  25 S10       30.10F
IOWA CITY      SUNNY     69  36  29 SE5       30.11F
FORT DODGE     SUNNY     68  36  30 SW14      30.08F
MARSHALLTOWN   SUNNY     68  35  29 SW9       30.08F
CEDAR RAPIDS   SUNNY     68  34  28 S7        30.09F
$$

...NORTHERN ILLINOIS...


CITY           SKY/WX    TMP DP  RH WIND       PRES   REMARKS
CHICAGO-OHARE  SUNNY     69  24  18 N5        30.08F
CHICAGO-MIDWAY SUNNY     69  29  22 NE6       30.09F
MOLINE         SUNNY     69  31  24 N6        30.09F
ROCKFORD       MOSUNNY   70  35  27 NW3       30.10F
PEORIA         SUNNY     67  32  27 NE9G17    30.10F
$$

NOTE: "FAIR" INDICATES FEW OR NO CLOUDS BELOW 12,000 FEET WITH NO
SIGNIFICANT WEATHER AND/OR OBSTRUCTIONS TO VISIBILITY. WIND
SPEEDS ARE IN MILES-PER-HOUR.




USA.gov is the U.S. government's official web portal to all federal, state and local government web resources and services.